Probability
2 1 0 0 0 1 2 1 2 2 1 0 0 0 0 0 0 1 2 1 1 2 2 1 0 0 0 0 1 1 1 0 0 0 0 0 0 0 0 0 0 0 0
2 1 0 0 0 1 1 1 1 1 0 0 0 0 0 0 0 1 2 1 1 2 2 1 0 0 0 0 0 1 0 0 0 0 0 0 0 0 0 0 0 0 0
1 1 1 0 0 0 1 1 0 0 0 0 0 0 0 0 0 1 2 3 2 2 1 0 0 0 0 0 1 1 1 0 1 1 1 0 0 0 0 0 1 1 0
1 2 2 1 0 1 2 2 1 1 0 0 1 1 1 0 0 1 3 3 3 2 1 0 0 0 0 0 2 2 1 1 1 2 2 1 1 0 0 0 1 2 1
2 3 2 1 0 1 2 2 1 0 0 1 1 2 1 0 1 2 3 3 3 3 2 1 0 0 0 0 1 2 1 1 1 2 3 2 2 1 0 1 2 3 3
3 3 2 1 0 1 2 2 1 0 1 1 1 1 1 0 1 2 3 3 3 3 3 2 1 1 0 0 0 1 1 0 1 1 2 2 2 1 1 2 3 3 3
3 3 3 1 0 0 1 1 0 0 1 1 1 0 0 0 1 2 3 3 3 3 3 3 3 2 1 0 0 0 0 0 0 0 0 1 1 1 1 2 3 3 3
3 3 2 2 1 0 0 0 0 0 0 0 0 0 0 0 1 3 3 3 3 3 3 3 3 2 1 1 1 0 0 0 0 0 0 0 0 0 0 2 3 3 2
2 2 1 1 1 0 0 0 0 0 0 0 0 0 0 0 2 3 3 3 3 3 3 3 3 3 2 2 2 0 0 0 0 0 0 0 0 0 1 2 3 3 2
2 1 0 0 0 0 0 0 0 0 0 0 0 0 0 0 1 2 2 3 3 3 3 3 3 3 3 3 2 0 0 0 0 0 0 0 0 0 1 2 3 3 3
3 2 1 0 0 0 0 0 0 0 0 1 1 1 0 0 0 1 1 1 2 3 3 3 3 3 3 3 2 0 0 0 0 0 0 0 0 0 1 2 3 3 3
3 3 1 1 0 0 0 0 0 0 0 1 2 2 1 0 0 0 0 1 1 2 3 3 2 3 3 3 1 0 0 0 0 0 0 0 0 0 0 2 3 3 3
2 2 2 2 1 0 0 0 0 0 0 1 2 2 1 0 0 0 0 1 2 2 2 2 2 3 3 2 1 0 0 0 0 0 0 0 0 0 0 1 2 3 3
1 1 1 2 2 1 0 0 0 0 0 0 1 2 1 0 0 0 0 1 2 2 1 2 2 3 2 1 0 0 0 0 0 0 0 0 0 0 0 1 1 2 2
0 0 0 1 1 1 1 0 0 0 0 0 1 1 1 0 0 0 0 0 1 1 0 1 2 2 1 1 0 0 0 0 0 0 0 0 0 0 0 0 0 1 1
0 0 0 0 0 1 1 0 0 0 0 0 0 0 0 0 0 0 0 0 0 0 0 0 0 1 1 0 0 0 0 0 0 0 0 0 0 0 0 0 0 0 0
0 0 0 0 0 0 0 0 0 0 0 0 0 0 0 0 0 0 0 0 0 0 0 0 0 0 1 0 0 0 0 0 0 0 0 0 0 0 0 0 0 0 0
0 0 0 0 0 0 0 0 0 0 0 0 0 0 0 0 0 0 0 0 0 0 0 0 0 0 0 0 0 0 1 1 1 1 0 0 0 0 0 0 0 0 0
0 0 0 0 0 0 0 0 0 0 0 0 0 0 0 0 0 0 0 0 0 0 0 0 0 0 0 0 0 1 2 2 2 1 0 0 0 0 0 0 0 0 0
0 0 0 0 0 0 0 0 0 0 0 0 0 0 0 0 0 0 0 0 0 0 0 0 0 0 0 0 0 2 3 2 1 0 0 0 0 0 0 0 0 0 0
0 0 0 0 0 0 0 0 0 0 0 0 0 0 0 0 0 0 0 0 0 0 0 0 0 0 0 0 0 1 2 1 0 0 0 0 0 0 0 0 0 0 0
0 0 0 0 0 0 0 0 0 0 0 0 0 0 0 0 0 0 0 0 0 0 0 0 0 0 0 0 0 0 0 0 0 0 0 0 0 0 0 0 0 0 0
0 0 0 0 0 0 0 0 0 0 0 0 0 0 0 0 0 0 0 0 0 0 0 0 0 0 0 0 0 0 0 0 0 0 0 0 0 0 0 0 0 0 0
0 0 0 0 0 0 0 0 0 0 0 0 0 0 0 0 0 0 0 0 0 0 0 0 0 0 0 0 0 0 0 0 0 0 0 0 0 0 0 0 0 0 0
0 0 0 0 0 0 0 0 0 0 0 0 0 0 0 0 0 0 0 0 0 0 0 0 0 0 0 0 0 0 0 0 0 0 0 0 0 0 0 0 0 0 0
0 0 0 0 0 0 0 0 0 0 0 0 0 0 0 0 0 0 0 0 0 0 0 0 0 0 0 0 0 0 0 0 0 0 0 0 0 0 0 0 0 0 0
Wind_Speed
1 1 1 1 1 1 1 1 2 3 3 3 2 3 3 3 2 2 3 4 2 3 5 5 6 6 6 7 7 7 7 7 8 8 7 7 8 8 8 8 7 8 8
1 1 0 1 1 1 1 1 2 2 2 2 2 2 2 3 2 2 2 3 2 2 3 4 5 5 6 6 7 7 7 7 8 7 7 7 7 7 7 6 7 7 7
1 1 1 1 1 1 2 1 2 2 2 2 2 2 2 2 2 2 2 2 2 3 3 4 5 5 5 6 6 6 6 7 7 8 7 7 7 6 6 6 6 6 6
2 1 1 1 1 1 2 2 2 2 3 2 2 1 2 2 2 2 2 2 2 2 3 3 3 4 4 5 6 6 6 7 7 7 7 7 7 6 6 6 6 5 5
2 2 1 1 2 2 2 2 2 2 3 2 2 1 1 2 2 2 2 2 2 2 2 3 2 2 3 4 5 6 6 7 7 7 8 7 7 7 6 5 5 5 5
2 1 1 2 2 1 1 1 2 2 2 2 2 1 1 1 2 2 2 2 2 2 2 3 3 2 2 3 4 5 6 7 7 7 8 8 7 7 6 6 5 5 4
1 1 1 2 2 2 2 2 2 2 2 2 2 2 1 2 2 2 2 2 2 2 2 3 2 3 3 3 3 4 5 6 7 8 8 8 8 7 7 6 5 5 5
1 2 2 2 2 2 2 2 2 2 2 3 2 2 2 3 3 2 2 2 3 3 2 2 3 3 3 3 2 3 4 6 6 8 8 9 8 8 7 6 6 6 5
2 2 2 2 3 2 3 3 3 3 3 3 3 3 3 3 1 3 3 3 3 3 3 3 3 3 3 3 3 3 3 5 7 8 9 9 9 9 8 7 6 6 5
2 2 2 3 3 3 3 3 3 3 4 4 3 3 3 1 2 2 3 3 3 3 3 2 3 3 4 3 3 3 3 4 6 7 8 9 9 10 9 9 7 7 6
2 2 2 3 3 3 3 4 3 3 4 4 4 3 3 3 3 3 3 3 3 3 3 3 3 3 4 4 4 4 4 4 6 7 8 9 9 9 10 9 8 7 7
2 2 2 3 3 3 4 4 4 5 4 5 4 4 4 4 4 3 4 5 4 3 3 3 4 4 3 4 4 3 4 5 5 7 8 8 9 9 9 9 9 8 7
3 3 3 3 3 3 4 4 5 5 6 6 5 5 5 4 4 4 3 4 4 3 3 3 3 3 3 3 3 4 5 5 6 7 8 8 7 7 7 7 9 8 8
4 4 4 4 4 4 4 4 4 5 6 6 6 6 4 4 4 4 3 3 4 3 4 4 3 3 3 3 2 4 5 6 6 7 8 8 7 6 6 7 7 8 8
4 5 5 5 5 5 5 5 5 5 6 6 6 6 5 4 4 4 4 4 5 5 6 5 4 4 3 4 3 4 4 5 7 7 7 6 6 6 6 7 7 7 8
4 5 5 5 5 5 5 5 5 5 5 5 5 6 6 4 4 4 4 4 5 5 5 4 4 4 5 4 4 5 5 4 6 8 8 7 7 7 7 7 7 8 8
5 5 5 5 5 5 5 5 6 5 6 6 6 7 7 6 4 4 4 4 5 5 6 4 4 4 6 6 5 6 5 5 5 7 8 8 8 7 7 7 8 8 8
5 5 5 5 5 5 5 5 6 6 7 7 6 7 8 6 6 5 5 5 5 5 5 5 4 4 6 6 6 6 5 5 5 5 8 9 8 8 8 8 7 8 8
5 5 5 5 5 5 5 6 6 7 7 7 7 7 7 7 7 5 6 6 5 5 4 5 4 3 3 4 5 5 5 5 5 4 7 8 9 8 8 9 8 9 8
5 5 5 5 5 5 5 6 6 6 7 7 6 7 7 7 7 7 6 7 6 6 5 4 4 3 3 3 4 4 4 4 4 4 5 6 7 8 9 9 9 9 9
5 5 5 5 5 4 4 5 6 6 6 7 7 7 6 7 7 7 6 6 6 6 5 4 4 3 3 4 5 4 5 4 4 3 4 4 4 5 6 8 9 9 9
5 5 5 4 4 3 5 6 6 6 6 7 7 7 6 7 7 8 8 9 9 8 7 6 5 6 6 5 5 4 4 4 4 3 4 4 4 5 5 5 6 8 9
5 5 4 4 4 4 5 7 8 6 7 7 7 6 5 5 7 6 7 8 8 9 10 8 7 7 6 6 6 6 6 5 4 2 3 5 4 5 4 4 7 8 8
5 5 5 5 4 4 6 6 7 6 6 6 6 7 6 6 6 7 6 7 7 7 8 7 7 6 5 5 6 5 4 4 3 2 3 4 4 4 3 4 7 8 8
5 5 5 5 5 5 5 6 6 5 5 6 6 6 6 6 7 8 7 7 7 6 6 7 7 6 6 6 5 3 4 4 4 3 3 3 2 3 4 5 5 8 8
5 5 4 4 5 5 5 6 6 4 4 4 5 5 7 7 7 7 7 7 7 6 5 4 5 4 5 5 6 6 5 5 3 3 3 3 2 2 3 3 3 3 5
Wind_Direction
209 232 221 193 194 204 198 184 185 179 173 166 168 167 165 168 158 141 115 79 82 119 134 138 144 146 143 141 139 137 138 136 131 126 121 116 112 109 105 99 97 94 91
217 232 245 242 216 218 202 194 192 184 176 174 175 179 177 175 171 158 137 123 90 113 136 143 147 152 151 150 150 146 145 145 140 135 130 125 120 115 111 108 106 103 99
222 220 227 243 264 229 198 188 187 184 168 173 179 186 185 186 181 174 163 160 153 131 128 142 146 153 158 160 160 159 156 153 148 144 141 136 131 126 124 118 112 108 104
241 215 218 241 263 243 199 183 198 191 175 183 188 193 192 196 194 188 181 178 175 161 139 121 133 150 163 167 169 168 165 159 156 153 148 145 143 137 133 129 123 117 109
256 226 219 230 236 241 209 187 207 201 187 182 184 196 194 195 199 200 198 192 180 173 165 140 142 144 163 174 177 173 173 171 166 163 159 156 154 152 146 142 139 133 123
272 241 224 226 223 224 211 200 213 204 191 180 175 178 203 197 208 202 204 200 179 177 181 179 183 172 168 180 184 182 180 182 179 173 172 171 168 163 161 159 155 152 146
285 266 230 220 229 222 214 201 199 194 186 173 168 170 201 204 209 200 205 207 190 185 191 190 193 195 186 186 198 193 194 189 192 187 182 181 180 178 177 176 174 168 164
279 271 243 227 225 223 210 196 189 198 199 190 187 183 195 202 208 217 214 214 208 196 197 194 198 203 198 195 180 197 204 205 203 197 191 190 189 188 187 184 185 182 177
276 268 256 240 227 217 215 206 199 206 198 205 202 202 203 206 189 207 215 218 214 207 209 202 207 221 215 201 196 193 211 217 215 212 204 200 200 199 198 197 196 193 190
289 279 270 249 230 223 222 218 212 214 204 201 213 232 239 199 201 205 203 208 222 225 225 220 217 218 219 207 204 196 194 214 223 224 218 209 207 207 207 210 208 204 199
268 281 282 257 235 230 231 228 223 221 213 212 208 214 220 213 206 214 219 216 225 224 228 231 227 222 221 214 209 196 197 215 224 229 228 219 211 210 209 211 210 209 206
267 278 282 265 251 242 237 234 223 226 226 221 221 213 210 210 204 212 218 215 230 233 233 233 231 226 221 219 214 193 202 212 226 229 229 226 218 214 215 214 213 214 213
269 268 269 269 260 250 239 240 228 225 228 226 226 224 222 229 221 222 223 216 233 245 237 232 230 229 226 231 214 207 205 211 226 232 230 228 224 219 219 221 218 216 219
269 269 262 263 260 255 243 237 241 230 231 229 230 230 229 228 226 222 215 215 221 234 231 228 220 229 231 228 224 218 210 209 224 231 228 229 229 221 218 223 225 218 219
272 264 258 258 261 255 246 236 235 233 234 232 233 232 231 229 229 228 219 220 217 226 233 227 215 218 230 228 209 221 227 215 225 225 225 225 228 223 217 219 221 217 219
273 264 261 259 258 252 245 240 241 238 236 237 234 231 232 230 230 230 225 231 232 231 236 227 229 230 230 240 232 232 232 225 224 220 221 223 224 224 218 216 217 216 217
275 267 262 261 259 254 245 239 239 237 235 237 235 233 232 229 227 229 228 231 233 229 237 243 239 237 232 236 236 238 234 227 224 219 222 223 222 222 221 220 219 214 214
277 269 261 258 256 254 246 243 241 237 234 238 235 235 236 230 228 227 227 233 235 230 229 241 243 236 237 236 233 235 237 236 236 221 226 225 222 224 223 220 222 218 215
282 273 263 257 256 256 250 246 246 244 240 240 235 233 237 234 229 227 229 232 237 235 231 231 238 240 246 229 227 234 238 238 241 232 227 223 222 225 226 222 222 219 216
282 277 268 259 256 254 253 250 248 247 244 244 243 239 237 237 237 233 231 231 233 231 232 226 232 235 229 217 220 227 233 232 236 234 232 231 224 224 226 225 224 220 218
288 282 275 266 259 253 259 255 247 248 249 248 247 241 240 243 251 247 239 234 229 227 229 227 228 234 224 210 217 220 229 230 239 228 231 228 222 220 221 224 222 220 219
293 287 279 268 262 261 275 265 257 248 249 249 253 248 245 242 247 250 250 248 239 231 227 227 230 230 230 225 219 215 216 218 233 212 231 239 227 231 227 226 224 221 221
297 292 287 281 268 272 275 270 265 256 250 247 251 251 250 245 244 244 246 245 244 246 240 236 235 236 234 223 218 217 217 223 239 215 228 239 225 235 231 231 227 223 224
291 291 288 285 278 278 281 279 274 262 256 253 253 252 250 251 248 247 238 237 241 243 244 240 239 243 245 240 231 230 231 235 250 227 218 239 229 239 240 235 218 222 228
288 286 281 277 277 281 290 290 277 259 257 258 258 255 250 251 260 256 243 237 241 245 249 251 256 256 251 243 236 220 216 222 240 234 213 234 233 241 245 236 223 220 226
288 289 283 277 277 283 298 295 279 256 257 260 262 257 253 261 263 255 247 239 238 240 238 246 253 249 236 225 225 224 218 222 232 231 201 211 213 209 250 240 236 229 231